• In Deutschland
  • Länderverzeichnis
  • Für 7 Tage
  • Wassertemperatur
  • Satellitenkarten
  • Wetterkarte
  • Widgets
  • user-avatar
    Anmelden

    Stündliche Wetter Lahi

    Heute, 22 April, Sonntag

    Zeit Temperatur Niederschläge Wind Luftdruck Luftfeuchtigkeit
    00:00 +5°C° 0 mm 6 m/S 731 mmHg 67%
    01:00 +5°C° 0 mm 6 m/S 732 mmHg 69%
    02:00 +5°C° 0 mm 4 m/S 732 mmHg 73%
    03:00 +5°C° 0 mm 4 m/S 732 mmHg 73%
    04:00 +5°C° 0 mm 5 m/S 732 mmHg 73%
    05:00 +3°C° 0 mm 5 m/S 732 mmHg 73%
    06:00 +4°C° 0 mm 6 m/S 732 mmHg 70%
    07:00 +5°C° 0 mm 6 m/S 732 mmHg 67%
    08:00 +6°C° 0 mm 7 m/S 732 mmHg 64%
    09:00 +6°C° 0,1 mm 7 m/S 732 mmHg 63%
    10:00 +6°C° 0,1 mm 7 m/S 732 mmHg 62%
    11:00 +8°C° 0,1 mm 7 m/S 733 mmHg 62%
    12:00 +8°C° 0,3 mm 7 m/S 733 mmHg 61%
    13:00 +8°C° 0,3 mm 7 m/S 733 mmHg 60%
    14:00 +9°C° 0,3 mm 7 m/S 733 mmHg 58%
    15:00 +8°C° 0,2 mm 7 m/S 734 mmHg 59%
    16:00 +8°C° 0,2 mm 6 m/S 734 mmHg 60%
    17:00 +8°C° 0,2 mm 6 m/S 734 mmHg 61%
    18:00 +6°C° 0 mm 5 m/S 735 mmHg 66%
    19:00 +5°C° 0 mm 4 m/S 735 mmHg 70%
    20:00 +4°C° 0 mm 3 m/S 736 mmHg 74%
    21:00 +3°C° 0 mm 3 m/S 737 mmHg 75%
    22:00 +3°C° 0 mm 3 m/S 737 mmHg 75%
    23:00 +2°C° 0 mm 3 m/S 738 mmHg 75%

    Morgen, 23 April, Montag

    Zeit Temperatur Niederschläge Wind Luftdruck Luftfeuchtigkeit
    00:00 +3°C° 0 mm 2 m/S 738 mmHg 75%
    01:00 +2°C° 0 mm 2 m/S 739 mmHg 76%
    02:00 +2°C° 0 mm 2 m/S 739 mmHg 76%
    03:00 +1°C° 0 mm 2 m/S 739 mmHg 76%
    04:00 +1°C° 0 mm 2 m/S 740 mmHg 77%
    05:00 -1°C° 0 mm 2 m/S 740 mmHg 78%
    06:00 +1°C° 0 mm 2 m/S 741 mmHg 68%
    07:00 +2°C° 0 mm 3 m/S 741 mmHg 59%
    08:00 +3°C° 0 mm 3 m/S 741 mmHg 50%
    09:00 +4°C° 0 mm 3 m/S 742 mmHg 46%
    10:00 +5°C° 0 mm 3 m/S 742 mmHg 43%
    11:00 +7°C° 0 mm 3 m/S 742 mmHg 39%
    12:00 +7°C° 0 mm 3 m/S 742 mmHg 38%
    13:00 +8°C° 0 mm 2 m/S 742 mmHg 36%
    14:00 +9°C° 0 mm 2 m/S 741 mmHg 34%
    15:00 +9°C° 0 mm 2 m/S 741 mmHg 35%
    16:00 +9°C° 0 mm 2 m/S 741 mmHg 36%
    17:00 +9°C° 0 mm 2 m/S 741 mmHg 37%
    18:00 +8°C° 0 mm 1 m/S 741 mmHg 42%
    19:00 +6°C° 0 mm 1 m/S 741 mmHg 47%
    20:00 +4°C° 0 mm 0 m/S 741 mmHg 52%
    21:00 +3°C° 0 mm 0 m/S 741 mmHg 54%
    22:00 +4°C° 0 mm 1 m/S 741 mmHg 55%
    23:00 +4°C° 0 mm 1 m/S 741 mmHg 56%

    übermorgen, 24 April, Dienstag

    Zeit Temperatur Niederschläge Wind Luftdruck Luftfeuchtigkeit
    00:00 +3°C° 0 mm 1 m/S 741 mmHg 58%
    01:00 +3°C° 0 mm 1 m/S 741 mmHg 61%
    02:00 +1°C° 0 mm 2 m/S 741 mmHg 63%
    03:00 +1°C° 0 mm 2 m/S 741 mmHg 64%
    04:00 +2°C° 0 mm 2 m/S 740 mmHg 64%
    05:00 +2°C° 0 mm 2 m/S 740 mmHg 65%
    06:00 +3°C° 0 mm 2 m/S 740 mmHg 62%
    07:00 +4°C° 0 mm 3 m/S 740 mmHg 59%
    08:00 +5°C° 0 mm 3 m/S 740 mmHg 55%
    09:00 +7°C° 0 mm 4 m/S 739 mmHg 53%
    10:00 +10°C° 0 mm 4 m/S 739 mmHg 50%
    11:00 +11°C° 0 mm 4 m/S 738 mmHg 47%
    12:00 +11°C° 0,2 mm 4 m/S 738 mmHg 54%
    13:00 +10°C° 0,2 mm 4 m/S 738 mmHg 60%
    14:00 +10°C° 0,2 mm 4 m/S 737 mmHg 67%
    15:00 +9°C° 0,7 mm 3 m/S 737 mmHg 74%
    16:00 +9°C° 0,7 mm 3 m/S 737 mmHg 80%
    17:00 +8°C° 0,7 mm 3 m/S 736 mmHg 87%
    18:00 +8°C° 0,2 mm 3 m/S 736 mmHg 90%
    19:00 +8°C° 0,2 mm 2 m/S 736 mmHg 92%
    20:00 +8°C° 0,2 mm 2 m/S 736 mmHg 95%
    21:00 +7°C° 0,1 mm 2 m/S 736 mmHg 95%
    22:00 +7°C° 0,1 mm 2 m/S 736 mmHg 96%
    23:00 +6°C° 0,1 mm 2 m/S 736 mmHg 96%

    25 April, Mittwoch

    Zeit Temperatur Niederschläge Wind Luftdruck Luftfeuchtigkeit
    00:00 +6°C° 0 mm 2 m/S 736 mmHg 96%
    01:00 +5°C° 0 mm 2 m/S 736 mmHg 96%
    02:00 +5°C° 0 mm 2 m/S 736 mmHg 96%
    03:00 +5°C° 0 mm 2 m/S 736 mmHg 96%
    04:00 +5°C° 0 mm 2 m/S 736 mmHg 95%
    05:00 +4°C° 0 mm 2 m/S 736 mmHg 95%
    06:00 +5°C° 0,1 mm 3 m/S 737 mmHg 91%
    07:00 +7°C° 0,1 mm 3 m/S 737 mmHg 86%
    08:00 +7°C° 0,1 mm 4 m/S 737 mmHg 82%
    09:00 +8°C° 0,2 mm 4 m/S 736 mmHg 80%
    10:00 +8°C° 0,2 mm 5 m/S 736 mmHg 79%
    11:00 +9°C° 0,2 mm 5 m/S 736 mmHg 78%
    12:00 +9°C° 0,2 mm 5 m/S 736 mmHg 80%
    13:00 +9°C° 0,2 mm 5 m/S 735 mmHg 82%
    14:00 +9°C° 0,2 mm 5 m/S 735 mmHg 85%
    15:00 +10°C° 0,2 mm 5 m/S 735 mmHg 82%
    16:00 +12°C° 0,2 mm 5 m/S 734 mmHg 80%
    17:00 +13°C° 0,2 mm 5 m/S 734 mmHg 77%
    18:00 +11°C° 0,1 mm 4 m/S 734 mmHg 80%
    19:00 +10°C° 0,1 mm 4 m/S 735 mmHg 83%
    20:00 +9°C° 0,1 mm 3 m/S 735 mmHg 85%
    21:00 +8°C° 0 mm 3 m/S 735 mmHg 87%
    22:00 +7°C° 0 mm 3 m/S 735 mmHg 88%
    23:00 +7°C° 0 mm 2 m/S 735 mmHg 90%

    26 April, Donnerstag

    Zeit Temperatur Niederschläge Wind Luftdruck Luftfeuchtigkeit
    00:00 +7°C° 0,3 mm 2 m/S 735 mmHg 89%
    01:00 +6°C° 0,3 mm 2 m/S 735 mmHg 89%
    02:00 +6°C° 0,3 mm 2 m/S 735 mmHg 89%
    03:00 +6°C° 0,4 mm 2 m/S 735 mmHg 90%
    04:00 +6°C° 0,4 mm 2 m/S 735 mmHg 91%
    05:00 +6°C° 0,4 mm 2 m/S 735 mmHg 92%
    06:00 +5°C° 0 mm 3 m/S 735 mmHg 87%
    07:00 +7°C° 0 mm 3 m/S 736 mmHg 81%
    08:00 +7°C° 0 mm 4 m/S 736 mmHg 76%
    09:00 +8°C° 0 mm 4 m/S 736 mmHg 69%
    10:00 +10°C° 0 mm 5 m/S 737 mmHg 61%
    11:00 +12°C° 0 mm 5 m/S 737 mmHg 54%
    12:00 +13°C° 0 mm 5 m/S 737 mmHg 51%
    13:00 +13°C° 0 mm 6 m/S 737 mmHg 48%
    14:00 +14°C° 0 mm 6 m/S 737 mmHg 45%
    15:00 +14°C° 0 mm 5 m/S 737 mmHg 47%
    16:00 +14°C° 0 mm 4 m/S 737 mmHg 49%
    17:00 +13°C° 0 mm 4 m/S 738 mmHg 51%
    18:00 +12°C° 0 mm 3 m/S 738 mmHg 57%
    19:00 +10°C° 0 mm 3 m/S 738 mmHg 64%
    20:00 +9°C° 0 mm 2 m/S 738 mmHg 70%
    21:00 +8°C° 0 mm 2 m/S 739 mmHg 72%
    22:00 +8°C° 0 mm 2 m/S 739 mmHg 75%
    23:00 +7°C° 0 mm 3 m/S 739 mmHg 77%

    27 April, Freitag

    Zeit Temperatur Niederschläge Wind Luftdruck Luftfeuchtigkeit
    00:00 +7°C° 0 mm 3 m/S 739 mmHg 77%
    01:00 +7°C° 0 mm 3 m/S 738 mmHg 77%
    02:00 +7°C° 0 mm 3 m/S 738 mmHg 76%
    03:00 +7°C° 0,4 mm 3 m/S 738 mmHg 78%
    04:00 +7°C° 0,4 mm 4 m/S 738 mmHg 79%
    05:00 +7°C° 0,4 mm 4 m/S 738 mmHg 80%
    06:00 +7°C° 1,2 mm 4 m/S 738 mmHg 84%
    07:00 +9°C° 1,2 mm 3 m/S 737 mmHg 89%
    08:00 +9°C° 1,2 mm 3 m/S 737 mmHg 93%
    09:00 +9°C° 0,7 mm 3 m/S 737 mmHg 93%
    10:00 +10°C° 0,7 mm 3 m/S 737 mmHg 92%
    11:00 +10°C° 0,7 mm 3 m/S 737 mmHg 91%
    12:00 +10°C° 0,8 mm 2 m/S 737 mmHg 89%
    13:00 +12°C° 0,8 mm 2 m/S 737 mmHg 86%
    14:00 +12°C° 0,8 mm 2 m/S 737 mmHg 83%
    15:00 +12°C° 0,2 mm 2 m/S 737 mmHg 80%
    16:00 +12°C° 0,2 mm 3 m/S 737 mmHg 77%
    17:00 +12°C° 0,2 mm 4 m/S 737 mmHg 75%
    18:00 +11°C° 0 mm 3 m/S 738 mmHg 78%
    19:00 +9°C° 0 mm 3 m/S 738 mmHg 81%
    20:00 +8°C° 0 mm 3 m/S 739 mmHg 84%
    21:00 +7°C° 0 mm 3 m/S 739 mmHg 85%
    22:00 +5°C° 0 mm 3 m/S 740 mmHg 86%
    23:00 +6°C° 0 mm 2 m/S 740 mmHg 86%
    Mehr zeigen